owner,sensor,date,latitude,longitude,vertical_datum,sea_water_practical_salinity,qcFlag 
DISL,ioos:station:DISL:MHPA:1,2013-09-01T00:00:00Z,30.6671,-87.9365,3.153,0.22,1111122 
DISL,ioos:station:DISL:MHPA:1,2013-09-01T00:30:00Z,30.6671,-87.9365,3.124,0.21,1111122 
DISL,ioos:station:DISL:MHPA:1,2013-09-01T01:00:00Z,30.6671,-87.9365,3.075,0.21,1111122 
DISL,ioos:station:DISL:MHPA:1,2013-09-01T01:30:00Z,30.6671,-87.9365,3.045,0.21,1111122 
DISL,ioos:station:DISL:MHPA:1,2013-09-01T02:00:00Z,30.6671,-87.9365,3.047,0.21,1111122 
DISL,ioos:station:DISL:MHPA:1,2013-09-01T02:30:00Z,30.6671,-87.9365,3.085,0.21,1111122 
DISL,ioos:station:DISL:MHPA:1,2013-09-01T03:00:00Z,30.6671,-87.9365,3.149,0.22,1111122 
DISL,ioos:station:DISL:MHPA:1,2013-09-01T03:30:00Z,30.6671,-87.9365,3.2,0.22,1111122 
DISL,ioos:station:DISL:MHPA:1,2013-09-01T04:00:00Z,30.6671,-87.9365,3.222,0.22,1111122 
DISL,ioos:station:DISL:MHPA:1,2013-09-01T04:30:00Z,30.6671,-87.9365,3.31,0.22,1111122 
DISL,ioos:station:DISL:MHPA:1,2013-09-01T05:00:00Z,30.6671,-87.9365,3.449,0.22,1111122 
DISL,ioos:station:DISL:MHPA:1,2013-09-01T05:30:00Z,30.6671,-87.9365,3.565,0.22,1111122 
DISL,ioos:station:DISL:MHPA:1,2013-09-01T06:00:00Z,30.6671,-87.9365,3.689,0.22,1111122 
DISL,ioos:station:DISL:MHPA:1,2013-09-01T06:30:00Z,30.6671,-87.9365,3.814,0.22,1111122 
DISL,ioos:station:DISL:MHPA:1,2013-09-01T07:00:00Z,30.6671,-87.9365,3.893,0.22,1111122 
DISL,ioos:station:DISL:MHPA:1,2013-09-01T07:30:00Z,30.6671,-87.9365,3.952,0.22,1111122 
DISL,ioos:station:DISL:MHPA:1,2013-09-01T08:00:00Z,30.6671,-87.9365,4.041,0.22,1111122 
DISL,ioos:station:DISL:MHPA:1,2013-09-01T08:30:00Z,30.6671,-87.9365,4.075,0.22,1111122 
DISL,ioos:station:DISL:MHPA:1,2013-09-01T09:00:00Z,30.6671,-87.9365,4.111,0.22,1111122 
DISL,ioos:station:DISL:MHPA:1,2013-09-01T09:30:00Z,30.6671,-87.9365,4.18,0.22,1111122 
DISL,ioos:station:DISL:MHPA:1,2013-09-01T10:00:00Z,30.6671,-87.9365,4.206,0.22,1111122 
DISL,ioos:station:DISL:MHPA:1,2013-09-01T10:30:00Z,30.6671,-87.9365,4.253,0.22,1111122 
DISL,ioos:station:DISL:MHPA:1,2013-09-01T11:00:00Z,30.6671,-87.9365,4.338,0.22,1111122 
DISL,ioos:station:DISL:MHPA:1,2013-09-01T11:30:00Z,30.6671,-87.9365,4.334,0.22,1111122 
DISL,ioos:station:DISL:MHPA:1,2013-09-01T12:00:00Z,30.6671,-87.9365,4.334,0.22,1111122 
DISL,ioos:station:DISL:MHPA:1,2013-09-01T12:30:00Z,30.6671,-87.9365,4.374,0.22,1111122 
DISL,ioos:station:DISL:MHPA:1,2013-09-01T13:00:00Z,30.6671,-87.9365,4.386,0.22,1111122 
DISL,ioos:station:DISL:MHPA:1,2013-09-01T13:30:00Z,30.6671,-87.9365,4.418,0.22,1111122 
DISL,ioos:station:DISL:MHPA:1,2013-09-01T14:00:00Z,30.6671,-87.9365,4.401,0.24,1111122 
DISL,ioos:station:DISL:MHPA:1,2013-09-01T14:30:00Z,30.6671,-87.9365,4.373,0.24,1111122 
DISL,ioos:station:DISL:MHPA:1,2013-09-01T15:00:00Z,30.6671,-87.9365,4.361,0.26,1111122 
DISL,ioos:station:DISL:MHPA:1,2013-09-01T15:30:00Z,30.6671,-87.9365,4.335,0.26,1111122 
DISL,ioos:station:DISL:MHPA:1,2013-09-01T16:00:00Z,30.6671,-87.9365,4.28,0.26,1111122 
DISL,ioos:station:DISL:MHPA:1,2013-09-01T16:30:00Z,30.6671,-87.9365,4.238,0.25,1111122 
DISL,ioos:station:DISL:MHPA:1,2013-09-01T17:00:00Z,30.6671,-87.9365,4.202,0.25,1111122 
DISL,ioos:station:DISL:MHPA:1,2013-09-01T17:30:00Z,30.6671,-87.9365,4.137,0.23,1111122 
DISL,ioos:station:DISL:MHPA:1,2013-09-01T18:00:00Z,30.6671,-87.9365,4.066,0.22,1111122 
DISL,ioos:station:DISL:MHPA:1,2013-09-01T18:30:00Z,30.6671,-87.9365,4.021,0.23,1111122 
DISL,ioos:station:DISL:MHPA:1,2013-09-01T19:00:00Z,30.6671,-87.9365,4.076,0.23,1111122 
DISL,ioos:station:DISL:MHPA:1,2013-09-01T19:30:00Z,30.6671,-87.9365,3.938,0.23,1111122 
DISL,ioos:station:DISL:MHPA:1,2013-09-01T20:00:00Z,30.6671,-87.9365,3.759,0.24,1111122 
DISL,ioos:station:DISL:MHPA:1,2013-09-01T20:30:00Z,30.6671,-87.9365,3.663,0.25,1111122 
DISL,ioos:station:DISL:MHPA:1,2013-09-01T21:00:00Z,30.6671,-87.9365,3.534,0.25,1111122 
DISL,ioos:station:DISL:MHPA:1,2013-09-01T21:30:00Z,30.6671,-87.9365,3.436,0.24,1111122 
DISL,ioos:station:DISL:MHPA:1,2013-09-01T22:00:00Z,30.6671,-87.9365,3.359,0.24,1111122 
DISL,ioos:station:DISL:MHPA:1,2013-09-01T22:30:00Z,30.6671,-87.9365,3.282,0.24,1111122 
DISL,ioos:station:DISL:MHPA:1,2013-09-01T23:00:00Z,30.6671,-87.9365,3.195,0.23,1111122 
DISL,ioos:station:DISL:MHPA:1,2013-09-01T23:30:00Z,30.6671,-87.9365,3.097,0.24,1111122 
DISL,ioos:station:DISL:MHPA:1,2013-09-02T00:00:00Z,30.6671,-87.9365,3.093,0.24,1111122 
DISL,ioos:station:DISL:MHPA:1,2013-09-02T00:30:00Z,30.6671,-87.9365,3.108,0.24,1111122 
DISL,ioos:station:DISL:MHPA:1,2013-09-02T01:00:00Z,30.6671,-87.9365,3.081,0.24,1111122 
DISL,ioos:station:DISL:MHPA:1,2013-09-02T01:30:00Z,30.6671,-87.9365,3.095,0.24,1111122 
DISL,ioos:station:DISL:MHPA:1,2013-09-02T02:00:00Z,30.6671,-87.9365,3.074,0.24,1111122 
DISL,ioos:station:DISL:MHPA:1,2013-09-02T02:30:00Z,30.6671,-87.9365,3.09,0.24,1111122 
DISL,ioos:station:DISL:MHPA:1,2013-09-02T03:00:00Z,30.6671,-87.9365,3.112,0.24,1111122 
DISL,ioos:station:DISL:MHPA:1,2013-09-02T03:30:00Z,30.6671,-87.9365,3.179,0.24,1111122 
DISL,ioos:station:DISL:MHPA:1,2013-09-02T04:00:00Z,30.6671,-87.9365,3.29,0.25,1111122 
DISL,ioos:station:DISL:MHPA:1,2013-09-02T04:30:00Z,30.6671,-87.9365,3.368,0.25,1111122 
DISL,ioos:station:DISL:MHPA:1,2013-09-02T05:00:00Z,30.6671,-87.9365,3.466,0.25,1111122 
DISL,ioos:station:DISL:MHPA:1,2013-09-02T05:30:00Z,30.6671,-87.9365,3.61,0.24,1111122 
DISL,ioos:station:DISL:MHPA:1,2013-09-02T06:00:00Z,30.6671,-87.9365,3.743,0.24,1111122 
DISL,ioos:station:DISL:MHPA:1,2013-09-02T06:30:00Z,30.6671,-87.9365,3.833,0.24,1111122 
DISL,ioos:station:DISL:MHPA:1,2013-09-02T07:00:00Z,30.6671,-87.9365,3.971,0.24,1111122 
DISL,ioos:station:DISL:MHPA:1,2013-09-02T07:30:00Z,30.6671,-87.9365,4.069,0.24,1111122 
DISL,ioos:station:DISL:MHPA:1,2013-09-02T08:00:00Z,30.6671,-87.9365,4.115,0.24,1111122 
DISL,ioos:station:DISL:MHPA:1,2013-09-02T08:30:00Z,30.6671,-87.9365,4.14,0.24,1111122 
DISL,ioos:station:DISL:MHPA:1,2013-09-02T09:00:00Z,30.6671,-87.9365,4.127,0.24,1111122 
DISL,ioos:station:DISL:MHPA:1,2013-09-02T09:30:00Z,30.6671,-87.9365,4.14,0.24,1111122 
DISL,ioos:station:DISL:MHPA:1,2013-09-02T10:00:00Z,30.6671,-87.9365,4.151,0.24,1111122 
DISL,ioos:station:DISL:MHPA:1,2013-09-02T10:30:00Z,30.6671,-87.9365,4.105,0.24,1111122 
DISL,ioos:station:DISL:MHPA:1,2013-09-02T11:00:00Z,30.6671,-87.9365,4.144,0.24,1111122 
DISL,ioos:station:DISL:MHPA:1,2013-09-02T11:30:00Z,30.6671,-87.9365,4.24,0.24,1111122 
DISL,ioos:station:DISL:MHPA:1,2013-09-02T12:00:00Z,30.6671,-87.9365,4.244,0.24,1111122 
DISL,ioos:station:DISL:MHPA:1,2013-09-02T12:30:00Z,30.6671,-87.9365,4.296,0.24,1111122 
DISL,ioos:station:DISL:MHPA:1,2013-09-02T13:00:00Z,30.6671,-87.9365,4.362,0.25,1111122 
DISL,ioos:station:DISL:MHPA:1,2013-09-02T13:30:00Z,30.6671,-87.9365,4.367,0.25,1111122 
DISL,ioos:station:DISL:MHPA:1,2013-09-02T14:00:00Z,30.6671,-87.9365,4.364,0.26,1111122 
DISL,ioos:station:DISL:MHPA:1,2013-09-02T14:30:00Z,30.6671,-87.9365,4.338,0.26,1111122 
DISL,ioos:station:DISL:MHPA:1,2013-09-02T15:00:00Z,30.6671,-87.9365,4.32,0.25,1111122 
DISL,ioos:station:DISL:MHPA:1,2013-09-02T15:30:00Z,30.6671,-87.9365,4.277,0.25,1111122 
DISL,ioos:station:DISL:MHPA:1,2013-09-02T16:00:00Z,30.6671,-87.9365,4.234,0.24,1111122 
DISL,ioos:station:DISL:MHPA:1,2013-09-02T16:30:00Z,30.6671,-87.9365,4.207,0.24,1111122 
DISL,ioos:station:DISL:MHPA:1,2013-09-02T17:00:00Z,30.6671,-87.9365,4.194,0.24,1111122 
DISL,ioos:station:DISL:MHPA:1,2013-09-02T17:30:00Z,30.6671,-87.9365,4.189,0.25,1111122 
DISL,ioos:station:DISL:MHPA:1,2013-09-02T18:00:00Z,30.6671,-87.9365,4.119,0.24,1111122 
DISL,ioos:station:DISL:MHPA:1,2013-09-02T18:30:00Z,30.6671,-87.9365,4.01,0.25,1111122 
DISL,ioos:station:DISL:MHPA:1,2013-09-02T19:00:00Z,30.6671,-87.9365,3.91,0.24,1111122 
DISL,ioos:station:DISL:MHPA:1,2013-09-02T19:30:00Z,30.6671,-87.9365,3.851,0.24,1111122 
DISL,ioos:station:DISL:MHPA:1,2013-09-02T20:00:00Z,30.6671,-87.9365,3.804,0.25,1111122 
DISL,ioos:station:DISL:MHPA:1,2013-09-02T20:30:00Z,30.6671,-87.9365,3.736,0.27,1111122 
DISL,ioos:station:DISL:MHPA:1,2013-09-02T21:00:00Z,30.6671,-87.9365,3.54,0.27,1111122 
DISL,ioos:station:DISL:MHPA:1,2013-09-02T21:30:00Z,30.6671,-87.9365,3.423,0.27,1111122 
DISL,ioos:station:DISL:MHPA:1,2013-09-02T22:00:00Z,30.6671,-87.9365,3.332,0.26,1111122 
DISL,ioos:station:DISL:MHPA:1,2013-09-02T22:30:00Z,30.6671,-87.9365,3.268,0.26,1111122 
DISL,ioos:station:DISL:MHPA:1,2013-09-02T23:00:00Z,30.6671,-87.9365,3.297,0.26,1111122 
DISL,ioos:station:DISL:MHPA:1,2013-09-02T23:30:00Z,30.6671,-87.9365,3.286,0.26,1111122 
DISL,ioos:station:DISL:MHPA:1,2013-09-03T00:00:00Z,30.6671,-87.9365,3.319,0.26,1111122 
DISL,ioos:station:DISL:MHPA:1,2013-09-03T00:30:00Z,30.6671,-87.9365,3.327,0.26,1111122 
DISL,ioos:station:DISL:MHPA:1,2013-09-03T01:00:00Z,30.6671,-87.9365,3.256,0.26,1111122 
DISL,ioos:station:DISL:MHPA:1,2013-09-03T01:30:00Z,30.6671,-87.9365,3.261,0.26,1111122 
DISL,ioos:station:DISL:MHPA:1,2013-09-03T02:00:00Z,30.6671,-87.9365,3.321,0.25,1111122 
DISL,ioos:station:DISL:MHPA:1,2013-09-03T02:30:00Z,30.6671,-87.9365,3.358,0.26,1111122 
DISL,ioos:station:DISL:MHPA:1,2013-09-03T03:00:00Z,30.6671,-87.9365,3.363,0.26,1111122 
DISL,ioos:station:DISL:MHPA:1,2013-09-03T03:30:00Z,30.6671,-87.9365,3.374,0.26,1111122 
DISL,ioos:station:DISL:MHPA:1,2013-09-03T04:00:00Z,30.6671,-87.9365,3.411,0.25,1111122 
DISL,ioos:station:DISL:MHPA:1,2013-09-03T04:30:00Z,30.6671,-87.9365,3.563,0.25,1111122 
DISL,ioos:station:DISL:MHPA:1,2013-09-03T05:00:00Z,30.6671,-87.9365,3.717,0.25,1111122 
DISL,ioos:station:DISL:MHPA:1,2013-09-03T05:30:00Z,30.6671,-87.9365,3.788,0.25,1111122 
DISL,ioos:station:DISL:MHPA:1,2013-09-03T06:00:00Z,30.6671,-87.9365,3.847,0.26,1111122 
DISL,ioos:station:DISL:MHPA:1,2013-09-03T06:30:00Z,30.6671,-87.9365,3.978,0.26,1111122 
DISL,ioos:station:DISL:MHPA:1,2013-09-03T07:00:00Z,30.6671,-87.9365,4.034,0.26,1111122 
DISL,ioos:station:DISL:MHPA:1,2013-09-03T07:30:00Z,30.6671,-87.9365,3.999,0.26,1111122 
DISL,ioos:station:DISL:MHPA:1,2013-09-03T08:00:00Z,30.6671,-87.9365,3.974,0.26,1111122 
DISL,ioos:station:DISL:MHPA:1,2013-09-03T08:30:00Z,30.6671,-87.9365,4.021,0.26,1111122 
DISL,ioos:station:DISL:MHPA:1,2013-09-03T09:00:00Z,30.6671,-87.9365,4.01,0.26,1111122 
DISL,ioos:station:DISL:MHPA:1,2013-09-03T09:30:00Z,30.6671,-87.9365,3.968,0.25,1111122 
DISL,ioos:station:DISL:MHPA:1,2013-09-03T10:00:00Z,30.6671,-87.9365,3.968,0.26,1111122 
DISL,ioos:station:DISL:MHPA:1,2013-09-03T10:30:00Z,30.6671,-87.9365,3.992,0.26,1111122 
DISL,ioos:station:DISL:MHPA:1,2013-09-03T11:00:00Z,30.6671,-87.9365,3.937,0.26,1111122 
DISL,ioos:station:DISL:MHPA:1,2013-09-03T11:30:00Z,30.6671,-87.9365,3.957,0.26,1111122 
DISL,ioos:station:DISL:MHPA:1,2013-09-03T12:00:00Z,30.6671,-87.9365,4.056,0.26,1111122 
DISL,ioos:station:DISL:MHPA:1,2013-09-03T12:30:00Z,30.6671,-87.9365,4.106,0.26,1111122 
DISL,ioos:station:DISL:MHPA:1,2013-09-03T13:00:00Z,30.6671,-87.9365,4.084,0.26,1111122 
DISL,ioos:station:DISL:MHPA:1,2013-09-03T13:30:00Z,30.6671,-87.9365,4.143,0.26,1111122 
DISL,ioos:station:DISL:MHPA:1,2013-09-03T14:00:00Z,30.6671,-87.9365,4.196,0.26,1111122 
DISL,ioos:station:DISL:MHPA:1,2013-09-03T14:30:00Z,30.6671,-87.9365,4.246,0.26,1111122 
DISL,ioos:station:DISL:MHPA:1,2013-09-03T15:00:00Z,30.6671,-87.9365,4.291,0.26,1111122 
DISL,ioos:station:DISL:MHPA:1,2013-09-03T15:30:00Z,30.6671,-87.9365,4.245,0.26,1111122 
DISL,ioos:station:DISL:MHPA:1,2013-09-03T16:00:00Z,30.6671,-87.9365,4.238,0.26,1111122 
DISL,ioos:station:DISL:MHPA:1,2013-09-03T16:30:00Z,30.6671,-87.9365,4.265,0.26,1111122 
DISL,ioos:station:DISL:MHPA:1,2013-09-03T17:00:00Z,30.6671,-87.9365,4.248,0.26,1111122 
DISL,ioos:station:DISL:MHPA:1,2013-09-03T17:30:00Z,30.6671,-87.9365,4.287,0.26,1111122 
DISL,ioos:station:DISL:MHPA:1,2013-09-03T18:00:00Z,30.6671,-87.9365,4.306,0.26,1111122 
DISL,ioos:station:DISL:MHPA:1,2013-09-03T18:30:00Z,30.6671,-87.9365,4.346,0.26,1111122 
DISL,ioos:station:DISL:MHPA:1,2013-09-03T19:00:00Z,30.6671,-87.9365,4.284,0.26,1111122 
DISL,ioos:station:DISL:MHPA:1,2013-09-03T19:30:00Z,30.6671,-87.9365,4.16,0.26,1111122 
DISL,ioos:station:DISL:MHPA:1,2013-09-03T20:00:00Z,30.6671,-87.9365,4.076,0.26,1111122 
DISL,ioos:station:DISL:MHPA:1,2013-09-03T20:30:00Z,30.6671,-87.9365,3.994,0.27,1111122 
DISL,ioos:station:DISL:MHPA:1,2013-09-03T21:00:00Z,30.6671,-87.9365,3.937,0.27,1111122 
DISL,ioos:station:DISL:MHPA:1,2013-09-03T21:30:00Z,30.6671,-87.9365,3.885,0.27,1111122 
DISL,ioos:station:DISL:MHPA:1,2013-09-03T22:00:00Z,30.6671,-87.9365,3.728,0.27,1111122 
DISL,ioos:station:DISL:MHPA:1,2013-09-03T22:30:00Z,30.6671,-87.9365,3.555,0.27,1111122 
DISL,ioos:station:DISL:MHPA:1,2013-09-03T23:00:00Z,30.6671,-87.9365,3.736,0.26,1111122 
DISL,ioos:station:DISL:MHPA:1,2013-09-03T23:30:00Z,30.6671,-87.9365,3.573,0.26,1111122 
DISL,ioos:station:DISL:MHPA:1,2013-09-04T00:00:00Z,30.6671,-87.9365,3.377,0.27,1111122 
DISL,ioos:station:DISL:MHPA:1,2013-09-04T00:30:00Z,30.6671,-87.9365,3.187,0.26,1111122 
DISL,ioos:station:DISL:MHPA:1,2013-09-04T01:00:00Z,30.6671,-87.9365,3.05,0.26,1111122 
DISL,ioos:station:DISL:MHPA:1,2013-09-04T01:30:00Z,30.6671,-87.9365,2.901,0.26,1111122 
DISL,ioos:station:DISL:MHPA:1,2013-09-04T02:00:00Z,30.6671,-87.9365,2.961,0.26,1111122 
DISL,ioos:station:DISL:MHPA:1,2013-09-04T02:30:00Z,30.6671,-87.9365,3.172,0.26,1111122 
DISL,ioos:station:DISL:MHPA:1,2013-09-04T03:00:00Z,30.6671,-87.9365,3.159,0.27,1111122 
DISL,ioos:station:DISL:MHPA:1,2013-09-04T03:30:00Z,30.6671,-87.9365,3.226,0.26,1111122 
DISL,ioos:station:DISL:MHPA:1,2013-09-04T04:00:00Z,30.6671,-87.9365,3.206,0.26,1111122 
DISL,ioos:station:DISL:MHPA:1,2013-09-04T04:30:00Z,30.6671,-87.9365,3.089,0.26,1111122 
DISL,ioos:station:DISL:MHPA:1,2013-09-04T05:00:00Z,30.6671,-87.9365,2.973,0.26,1111122 
DISL,ioos:station:DISL:MHPA:1,2013-09-04T05:30:00Z,30.6671,-87.9365,3.021,0.26,1111122 
DISL,ioos:station:DISL:MHPA:1,2013-09-04T06:00:00Z,30.6671,-87.9365,3.198,0.26,1111122 
DISL,ioos:station:DISL:MHPA:1,2013-09-04T06:30:00Z,30.6671,-87.9365,3.383,0.26,1111122 
DISL,ioos:station:DISL:MHPA:1,2013-09-04T07:00:00Z,30.6671,-87.9365,3.552,0.26,1111122 
DISL,ioos:station:DISL:MHPA:1,2013-09-04T07:30:00Z,30.6671,-87.9365,3.583,0.26,1111122 
DISL,ioos:station:DISL:MHPA:1,2013-09-04T08:00:00Z,30.6671,-87.9365,3.601,0.26,1111122 
DISL,ioos:station:DISL:MHPA:1,2013-09-04T08:30:00Z,30.6671,-87.9365,3.661,0.26,1111122 
DISL,ioos:station:DISL:MHPA:1,2013-09-04T09:00:00Z,30.6671,-87.9365,3.648,0.27,1111122 
DISL,ioos:station:DISL:MHPA:1,2013-09-04T09:30:00Z,30.6671,-87.9365,3.625,0.27,1111122 
DISL,ioos:station:DISL:MHPA:1,2013-09-04T10:00:00Z,30.6671,-87.9365,3.684,0.27,1111122 
DISL,ioos:station:DISL:MHPA:1,2013-09-04T10:30:00Z,30.6671,-87.9365,3.62,0.27,1111122 
DISL,ioos:station:DISL:MHPA:1,2013-09-04T11:00:00Z,30.6671,-87.9365,3.592,0.27,1111122 
DISL,ioos:station:DISL:MHPA:1,2013-09-04T11:30:00Z,30.6671,-87.9365,3.656,0.27,1111122 
DISL,ioos:station:DISL:MHPA:1,2013-09-04T12:00:00Z,30.6671,-87.9365,3.713,0.27,1111122 
DISL,ioos:station:DISL:MHPA:1,2013-09-04T12:30:00Z,30.6671,-87.9365,3.765,0.27,1111122 
DISL,ioos:station:DISL:MHPA:1,2013-09-04T13:00:00Z,30.6671,-87.9365,3.795,0.26,1111122 
DISL,ioos:station:DISL:MHPA:1,2013-09-04T13:30:00Z,30.6671,-87.9365,3.837,0.26,1111122 
DISL,ioos:station:DISL:MHPA:1,2013-09-04T14:00:00Z,30.6671,-87.9365,3.952,0.28,1111122 
DISL,ioos:station:DISL:MHPA:1,2013-09-04T14:30:00Z,30.6671,-87.9365,4.032,0.28,1111122 
DISL,ioos:station:DISL:MHPA:1,2013-09-04T15:00:00Z,30.6671,-87.9365,4.126,0.28,1111122 
DISL,ioos:station:DISL:MHPA:1,2013-09-04T15:30:00Z,30.6671,-87.9365,4.249,0.27,1111122 
DISL,ioos:station:DISL:MHPA:1,2013-09-04T16:00:00Z,30.6671,-87.9365,4.271,0.28,1111122 
DISL,ioos:station:DISL:MHPA:1,2013-09-04T16:30:00Z,30.6671,-87.9365,4.296,0.28,1111122 
DISL,ioos:station:DISL:MHPA:1,2013-09-04T17:00:00Z,30.6671,-87.9365,4.352,0.28,1111122 
DISL,ioos:station:DISL:MHPA:1,2013-09-04T17:30:00Z,30.6671,-87.9365,4.333,0.28,1111122 
DISL,ioos:station:DISL:MHPA:1,2013-09-04T18:00:00Z,30.6671,-87.9365,4.298,0.27,1111122 
DISL,ioos:station:DISL:MHPA:1,2013-09-04T18:30:00Z,30.6671,-87.9365,4.27,0.28,1111122 
DISL,ioos:station:DISL:MHPA:1,2013-09-04T19:00:00Z,30.6671,-87.9365,4.217,0.27,1111122 
DISL,ioos:station:DISL:MHPA:1,2013-09-04T19:30:00Z,30.6671,-87.9365,4.161,0.26,1111122 
DISL,ioos:station:DISL:MHPA:1,2013-09-04T20:00:00Z,30.6671,-87.9365,4.091,0.29,1111122 
DISL,ioos:station:DISL:MHPA:1,2013-09-04T20:30:00Z,30.6671,-87.9365,4.022,0.31,1111122 
DISL,ioos:station:DISL:MHPA:1,2013-09-04T21:00:00Z,30.6671,-87.9365,3.96,0.3,1111122 
DISL,ioos:station:DISL:MHPA:1,2013-09-04T21:30:00Z,30.6671,-87.9365,3.961,0.3,1111122 
DISL,ioos:station:DISL:MHPA:1,2013-09-04T22:00:00Z,30.6671,-87.9365,3.891,0.31,1111122 
DISL,ioos:station:DISL:MHPA:1,2013-09-04T22:30:00Z,30.6671,-87.9365,3.76,0.3,1111122 
DISL,ioos:station:DISL:MHPA:1,2013-09-04T23:00:00Z,30.6671,-87.9365,3.613,0.3,1111122 
DISL,ioos:station:DISL:MHPA:1,2013-09-04T23:30:00Z,30.6671,-87.9365,3.512,0.3,1111122 
DISL,ioos:station:DISL:MHPA:1,2013-09-05T00:00:00Z,30.6671,-87.9365,3.394,0.3,1111122 
DISL,ioos:station:DISL:MHPA:1,2013-09-05T00:30:00Z,30.6671,-87.9365,3.288,0.3,1111122 
DISL,ioos:station:DISL:MHPA:1,2013-09-05T01:00:00Z,30.6671,-87.9365,3.209,0.3,1111122 
DISL,ioos:station:DISL:MHPA:1,2013-09-05T01:30:00Z,30.6671,-87.9365,3.152,0.3,1111122 
DISL,ioos:station:DISL:MHPA:1,2013-09-05T02:00:00Z,30.6671,-87.9365,3.153,0.3,1111122 
DISL,ioos:station:DISL:MHPA:1,2013-09-05T02:30:00Z,30.6671,-87.9365,3.174,0.3,1111122 
DISL,ioos:station:DISL:MHPA:1,2013-09-05T03:00:00Z,30.6671,-87.9365,3.204,0.29,1111122 
DISL,ioos:station:DISL:MHPA:1,2013-09-05T03:30:00Z,30.6671,-87.9365,3.273,0.3,1111122 
DISL,ioos:station:DISL:MHPA:1,2013-09-05T04:00:00Z,30.6671,-87.9365,3.33,0.3,1111122 
DISL,ioos:station:DISL:MHPA:1,2013-09-05T04:30:00Z,30.6671,-87.9365,3.362,0.3,1111122 
DISL,ioos:station:DISL:MHPA:1,2013-09-05T05:00:00Z,30.6671,-87.9365,3.438,0.3,1111122 
DISL,ioos:station:DISL:MHPA:1,2013-09-05T05:30:00Z,30.6671,-87.9365,3.39,0.3,1111122 
DISL,ioos:station:DISL:MHPA:1,2013-09-05T06:00:00Z,30.6671,-87.9365,3.37,0.3,1111122 
DISL,ioos:station:DISL:MHPA:1,2013-09-05T06:30:00Z,30.6671,-87.9365,3.478,0.3,1111122 
DISL,ioos:station:DISL:MHPA:1,2013-09-05T07:00:00Z,30.6671,-87.9365,3.566,0.3,1111122 
DISL,ioos:station:DISL:MHPA:1,2013-09-05T07:30:00Z,30.6671,-87.9365,3.605,0.3,1111122 
DISL,ioos:station:DISL:MHPA:1,2013-09-05T08:00:00Z,30.6671,-87.9365,3.555,0.3,1111122 
DISL,ioos:station:DISL:MHPA:1,2013-09-05T08:30:00Z,30.6671,-87.9365,3.593,0.3,1111122 
DISL,ioos:station:DISL:MHPA:1,2013-09-05T09:00:00Z,30.6671,-87.9365,3.59,0.3,1111122 
DISL,ioos:station:DISL:MHPA:1,2013-09-05T09:30:00Z,30.6671,-87.9365,3.572,0.3,1111122 
DISL,ioos:station:DISL:MHPA:1,2013-09-05T10:00:00Z,30.6671,-87.9365,3.582,0.3,1111122 
DISL,ioos:station:DISL:MHPA:1,2013-09-05T10:30:00Z,30.6671,-87.9365,3.522,0.3,1111122 
DISL,ioos:station:DISL:MHPA:1,2013-09-05T11:00:00Z,30.6671,-87.9365,3.447,0.3,1111122 
DISL,ioos:station:DISL:MHPA:1,2013-09-05T11:30:00Z,30.6671,-87.9365,3.436,0.3,1111122 
DISL,ioos:station:DISL:MHPA:1,2013-09-05T12:00:00Z,30.6671,-87.9365,3.431,0.3,1111122 
DISL,ioos:station:DISL:MHPA:1,2013-09-05T12:30:00Z,30.6671,-87.9365,3.393,0.3,1111122 
DISL,ioos:station:DISL:MHPA:1,2013-09-05T13:00:00Z,30.6671,-87.9365,3.419,0.3,1111122 
DISL,ioos:station:DISL:MHPA:1,2013-09-05T13:30:00Z,30.6671,-87.9365,3.469,0.3,1111122 
DISL,ioos:station:DISL:MHPA:1,2013-09-05T14:00:00Z,30.6671,-87.9365,3.523,0.3,1111122 
DISL,ioos:station:DISL:MHPA:1,2013-09-05T14:30:00Z,30.6671,-87.9365,3.608,0.3,1111122 
DISL,ioos:station:DISL:MHPA:1,2013-09-05T15:00:00Z,30.6671,-87.9365,3.712,0.3,1111122 
DISL,ioos:station:DISL:MHPA:1,2013-09-05T15:30:00Z,30.6671,-87.9365,3.785,0.32,1111122 
DISL,ioos:station:DISL:MHPA:1,2013-09-05T16:00:00Z,30.6671,-87.9365,3.902,0.33,1111122 
DISL,ioos:station:DISL:MHPA:1,2013-09-05T16:30:00Z,30.6671,-87.9365,4.004,0.33,1111122 
DISL,ioos:station:DISL:MHPA:1,2013-09-05T17:00:00Z,30.6671,-87.9365,3.996,0.33,1111122 
DISL,ioos:station:DISL:MHPA:1,2013-09-05T17:30:00Z,30.6671,-87.9365,4.058,0.31,1111122 
DISL,ioos:station:DISL:MHPA:1,2013-09-05T18:00:00Z,30.6671,-87.9365,4.125,0.3,1111122 
DISL,ioos:station:DISL:MHPA:1,2013-09-05T18:30:00Z,30.6671,-87.9365,4.144,0.3,1111122 
DISL,ioos:station:DISL:MHPA:1,2013-09-05T19:00:00Z,30.6671,-87.9365,4.171,0.31,1111122 
DISL,ioos:station:DISL:MHPA:1,2013-09-05T19:30:00Z,30.6671,-87.9365,4.167,0.31,1111122 
DISL,ioos:station:DISL:MHPA:1,2013-09-05T20:00:00Z,30.6671,-87.9365,4.143,0.31,1111122 
DISL,ioos:station:DISL:MHPA:1,2013-09-05T20:30:00Z,30.6671,-87.9365,4.121,0.31,1111122 
DISL,ioos:station:DISL:MHPA:1,2013-09-05T21:00:00Z,30.6671,-87.9365,4.065,0.3,1111122 
DISL,ioos:station:DISL:MHPA:1,2013-09-05T21:30:00Z,30.6671,-87.9365,3.972,0.31,1111122 
DISL,ioos:station:DISL:MHPA:1,2013-09-05T22:00:00Z,30.6671,-87.9365,3.934,0.31,1111122 
DISL,ioos:station:DISL:MHPA:1,2013-09-05T22:30:00Z,30.6671,-87.9365,3.848,0.33,1111122 
DISL,ioos:station:DISL:MHPA:1,2013-09-05T23:00:00Z,30.6671,-87.9365,3.743,0.31,1111122 
DISL,ioos:station:DISL:MHPA:1,2013-09-05T23:30:00Z,30.6671,-87.9365,3.654,0.33,1111122 
DISL,ioos:station:DISL:MHPA:1,2013-09-06T00:00:00Z,30.6671,-87.9365,3.587,0.32,1111122 
DISL,ioos:station:DISL:MHPA:1,2013-09-06T00:30:00Z,30.6671,-87.9365,3.536,0.31,1111122 
DISL,ioos:station:DISL:MHPA:1,2013-09-06T01:00:00Z,30.6671,-87.9365,3.449,0.32,1111122 
DISL,ioos:station:DISL:MHPA:1,2013-09-06T01:30:00Z,30.6671,-87.9365,3.363,0.32,1111122 
DISL,ioos:station:DISL:MHPA:1,2013-09-06T02:00:00Z,30.6671,-87.9365,3.311,0.33,1111122 
DISL,ioos:station:DISL:MHPA:1,2013-09-06T02:30:00Z,30.6671,-87.9365,3.282,0.33,1111122 
DISL,ioos:station:DISL:MHPA:1,2013-09-06T03:00:00Z,30.6671,-87.9365,3.31,0.33,1111122 
DISL,ioos:station:DISL:MHPA:1,2013-09-06T03:30:00Z,30.6671,-87.9365,3.353,0.33,1111122 
DISL,ioos:station:DISL:MHPA:1,2013-09-06T04:00:00Z,30.6671,-87.9365,3.434,0.33,1111122 
DISL,ioos:station:DISL:MHPA:1,2013-09-06T04:30:00Z,30.6671,-87.9365,3.51,0.33,1111122 
DISL,ioos:station:DISL:MHPA:1,2013-09-06T05:00:00Z,30.6671,-87.9365,3.555,0.33,1111122 
DISL,ioos:station:DISL:MHPA:1,2013-09-06T05:30:00Z,30.6671,-87.9365,3.656,0.33,1111122 
DISL,ioos:station:DISL:MHPA:1,2013-09-06T06:00:00Z,30.6671,-87.9365,3.66,0.33,1111122 
DISL,ioos:station:DISL:MHPA:1,2013-09-06T06:30:00Z,30.6671,-87.9365,3.634,0.33,1111122 
DISL,ioos:station:DISL:MHPA:1,2013-09-06T07:00:00Z,30.6671,-87.9365,3.666,0.33,1111122 
DISL,ioos:station:DISL:MHPA:1,2013-09-06T07:30:00Z,30.6671,-87.9365,3.675,0.33,1111122 
DISL,ioos:station:DISL:MHPA:1,2013-09-06T08:00:00Z,30.6671,-87.9365,3.625,0.33,1111122 
DISL,ioos:station:DISL:MHPA:1,2013-09-06T08:30:00Z,30.6671,-87.9365,3.642,0.32,1111122 
DISL,ioos:station:DISL:MHPA:1,2013-09-06T09:00:00Z,30.6671,-87.9365,3.622,0.32,1111122 
DISL,ioos:station:DISL:MHPA:1,2013-09-06T09:30:00Z,30.6671,-87.9365,3.515,0.32,1111122 
DISL,ioos:station:DISL:MHPA:1,2013-09-06T10:00:00Z,30.6671,-87.9365,3.477,0.32,1111122 
DISL,ioos:station:DISL:MHPA:1,2013-09-06T10:30:00Z,30.6671,-87.9365,3.449,0.32,1111122 
DISL,ioos:station:DISL:MHPA:1,2013-09-06T11:00:00Z,30.6671,-87.9365,3.401,0.32,1111122 
DISL,ioos:station:DISL:MHPA:1,2013-09-06T11:30:00Z,30.6671,-87.9365,3.333,0.32,1111122 
DISL,ioos:station:DISL:MHPA:1,2013-09-06T12:00:00Z,30.6671,-87.9365,3.282,0.32,1111122 
DISL,ioos:station:DISL:MHPA:1,2013-09-06T12:30:00Z,30.6671,-87.9365,3.241,0.32,1111122 
DISL,ioos:station:DISL:MHPA:1,2013-09-06T13:00:00Z,30.6671,-87.9365,3.199,0.31,1111122 
DISL,ioos:station:DISL:MHPA:1,2013-09-06T13:30:00Z,30.6671,-87.9365,3.152,0.32,1111122 
DISL,ioos:station:DISL:MHPA:1,2013-09-06T14:00:00Z,30.6671,-87.9365,3.169,0.32,1111122 
DISL,ioos:station:DISL:MHPA:1,2013-09-06T14:30:00Z,30.6671,-87.9365,3.249,0.32,1111122 
DISL,ioos:station:DISL:MHPA:1,2013-09-06T15:00:00Z,30.6671,-87.9365,3.297,0.32,1111122 
DISL,ioos:station:DISL:MHPA:1,2013-09-06T15:30:00Z,30.6671,-87.9365,3.385,0.32,1111122 